Regional Weather Roundup
Issued by NWS

Home | Current Version | Previous Version | Graphics & Text | Print | Product List | Glossary On
Versions: 1 2 3 4 5 6 7 8 9 10 11 12 13 14 15 16 17 18 19 20 21 22 23 24 25 26 27 28 29 30 31 32 33 34 35 36 37 38 39 40 41 42 43 44 45 46 47 48 49 50
000
ASUS43 KLOT 242209
RWRIL

ILLINOIS REGIONAL WEATHER ROUNDUP
NATIONAL WEATHER SERVICE CHICAGO/ROMEOVILLE IL
500 PM CDT SAT JUN 24 2017

NOTE: "FAIR" INDICATES FEW OR NO CLOUDS BELOW 12,000 FEET WITH NO
SIGNIFICANT WEATHER AND/OR OBSTRUCTIONS TO VISIBILITY.

* THESE STATIONS ARE NOT UNDER NWS QUALITY CONTROL. THEY ALSO MAY NOT
  REPORT WEATHER SUCH AS PRECIPITATION OR FOG.

ILZ001-002-007-009-015-016-024-242300-
NORTHWEST ILLINOIS

CITY           SKY/WX    TMP DP  RH WIND       PRES   REMARKS
MOLINE         SUNNY     74  40  29 NW17G26   30.07F
STERLING*      MOSUNNY   72  44  36 W21G29    30.06S
SAVANNA*       SUNNY     72  44  35 W13G21    30.05F
$$

ILZ003-004-008-010-011-017-018-242300-
NORTH CENTRAL ILLINOIS

CITY           SKY/WX    TMP DP  RH WIND       PRES   REMARKS
ROCKFORD       MOSUNNY   73  43  33 NW21G35   30.04S
FREEPORT*      MOSUNNY   69  42  37 W20G26    30.05F
ROCHELLE*      SUNNY     71  44  38 NW18G29   30.04S
DE KALB*       MOSUNNY   71  42  35 W22G36    30.03S
PERU*          SUNNY     71  42  35 NW24      30.06R
$$

ILZ005-006-012>014-019>023-242300-
NORTHEAST ILLINOIS

CITY           SKY/WX    TMP DP  RH WIND       PRES   REMARKS
CHICAGO-OHARE  MOSUNNY   73  44  35 W13G28    29.99S
CHICAGO-MIDWAY MOSUNNY   73  44  35 W13G28    29.99S
AURORA         SUNNY     73  44  35 W25G37    30.02S
LANSING*       PTSUNNY   74  44  34 W16G25    30.00S
JOLIET*        MOSUNNY   74  44  34 W12G26    30.02S
WAUKEGAN       PTSUNNY   72  47  40 W10G18    29.96F
DUPAGE AIRPORT MOSUNNY   72  45  37 NW21G30   30.00S
WHEELING       MOSUNNY   72  45  37 W17G29    29.99F
MORRIS*        MOSUNNY   73  42  32 NW24G37   30.01S
ROMEOVILLE*    MOSUNNY   74  40  29 NW24G30   30.01S
NORTHERLY ISL    N/A     72  40  31 W10         N/A
$$

LMZ740>746-242300-
SOUTHERN LAKE MICHIGAN

STATION/POSITION SKY/WX   TEMP    WIND        PRES    VSBY  WAVE
                          AIR SEA DIR/SP/G                  HT/PER
                          (F)     (DEG/KT/KT) (MB)    (MI)  (FT/S)
SOUTHERN BUOY              64 63  250/  2/  4 1014.7F         1/ 3
WILMETTE HARBOR            69 65  280/ 14/ 19   N/A           2/ 3
HARRISON CRIB              72     280/ 18/ 20   N/A
BURNHAM HARBOR             73                   N/A
CALUMET HARBOR             74     260/  5/ 12 1015.1S
BURNS HARBOR               70     280/ 12/ 18 1016.3S
MICHIGAN CITY              70     340/  8/  9   N/A
MICHIGAN CITY 6N           68 69  330/  6/  8   N/A           2/ 3
ST. JOSEPH                 68 69  310/  4/  6 1015.4          2/ 4
$$

ILZ025>027-034>036-040-047-049-050-058-095>099-242300-
WEST-CENTRAL ILLINOIS

CITY           SKY/WX    TMP DP  RH WIND       PRES   REMARKS
QUINCY         SUNNY     75  40  28 NW20G30   30.12S
GALESBURG*     SUNNY     73  43  34 NW15G25   30.10S
MACOMB*        SUNNY     74  41  29 W17       30.13S
JACKSONVILLE*  SUNNY     75  41  28 NW12G26   30.11R
PITTSFIELD*    SUNNY     76  43  31 NW14G24   30.13S
$$

ILZ028>032-037-038-041>044-048-051>054-059>061-242300-
CENTRAL ILLINOIS

CITY           SKY/WX    TMP DP  RH WIND       PRES   REMARKS
PONTIAC        SUNNY     74  42  32 NW21G30   30.06S
BLOOMINGTON    SUNNY     74  44  34 NW18G25   30.08S
DECATUR        SUNNY     75  44  33 NW15G26   30.08R
PEORIA         MOSUNNY   74  42  31 NW10G22   30.08S
LACON*         MOSUNNY   72  43  35 NW13G21   30.06S
LINCOLN*       SUNNY     76  44  32 NW8G17    30.08S
SPRINGFIELD    SUNNY     78  44  29 NW16G24   30.09S
TAYLORVILLE    MOSUNNY   75  47  36 NW12G20   30.09S
$$

ILZ033-039-045-046-055>057-062-063-242300-
EAST-CENTRAL ILLINOIS

CITY           SKY/WX    TMP DP  RH WIND       PRES   REMARKS
CHAMPAIGN      MOSUNNY   75  44  33 NW14G25   30.06S
RANTOUL*       SUNNY     77  48  36 W14G24    30.06S
MATTOON        MOSUNNY   74  51  44 W12       30.07S
PARIS*         SUNNY     75  51  44 NW10      30.07S
$$

ILZ079-100>102-242300-
SOUTHWEST ILLINOIS

CITY           SKY/WX    TMP DP  RH WIND       PRES   REMARKS
ALTON          MOSUNNY   75  52  43 NW8G16    30.11F
BELLEVILLE     SUNNY     78  49  35 NW13      30.11S
CAHOKIA*       SUNNY     80  43  26 NW14G24   30.10F
SPARTA*        MOSUNNY   78  45  30 NW10      30.11S
$$

ILZ064>066-069>071-074>076-080>082-084>086-088>090-092>094-242300-
SOUTH-CENTRAL ILLINOIS

CITY           SKY/WX    TMP DP  RH WIND       PRES   REMARKS
CARBONDALE     CLOUDY    77  50  38 NW7       30.10F
CAIRO*         MOSUNNY   77  54  43 NW9G16    30.10S
EFFINGHAM*     MOSUNNY   77  50  38 W12G23    30.10S
MARION         PTSUNNY   77  50  38 NW9       30.11F
MT. VERNON     MOSUNNY   77  50  38 VRB7      30.10S
CENTRALIA*     MOSUNNY   78  53  41 NW12G17   30.10S
SALEM*         SUNNY     78  49  36 NW13      30.10S
METROPOLIS*    PTSUNNY   78  55  45 NW10G17   30.10S
$$

ILZ067-068-072-073-078-083-087-091-242300-
SOUTHEAST ILLINOIS

CITY           SKY/WX    TMP DP  RH WIND       PRES   REMARKS
LAWRENCEVILLE  CLOUDY    78  52  40 NW14      30.07S
FLORA*         CLOUDY    78  50  37 NW9       30.09S
FAIRFIELD*     MOSUNNY   77  51  40 W5        30.09S
HARRISBURG*    CLOUDY    76  53  44 NW12      30.10S
ROBINSON*      MOSUNNY   75  52  44 NW9       30.09R
CARMI*         MOSUNNY   76  54  46 NW13G18   30.08S
$$

ABBREVIATIONS USED IN REMARKS
   TC - TEMPERATURE IN CELSIUS
  WCI - WIND CHILL INDEX
   HX - HEAT INDEX
  VSB - VISIBILITY
$$





USA.gov is the U.S. government's official web portal to all federal, state and local government web resources and services.